Simultaneous Nadir Overpasses (SNOs) Predictions

Prediction of SNOs between GOES-16 and TERRA Satellite Orbit:

Table of predicted SNOs for the next 14.0 days since TLE Epoch: 11/28/2025
Index Date Time (GOES-16) GOES-16 Lat,Lon TERRA Lat,Lon Distance(km) Time Diff (sec)
1 11/29/2025 03:51:14 -0.04,-104.64 0.70,-101.19 392.05 80
2 11/29/2025 16:10:35 0.03,-104.70 0.28,-105.90 137.14 80
3 12/01/2025 15:53:41 0.03,-104.70 -0.71,-101.19 398.63 80
4 12/02/2025 04:13:11 -0.03,-104.65 -0.33,-105.94 146.79 80
5 12/04/2025 03:50:57 -0.03,-104.65 0.68,-101.23 388.31 80
6 12/04/2025 16:10:18 0.03,-104.69 0.28,-105.94 141.47 80
7 12/06/2025 15:53:23 0.04,-104.69 -0.69,-101.22 393.93 80
8 12/07/2025 04:12:52 -0.04,-104.64 -0.35,-105.97 151.08 80
9 12/09/2025 03:50:38 -0.06,-104.64 0.64,-101.25 384.65 80
10 12/09/2025 16:09:58 0.06,-104.69 0.31,-105.97 145.33 80
11 12/11/2025 15:53:02 0.06,-104.69 -0.64,-101.24 391.43 80
12 12/12/2025 04:12:33 -0.06,-104.65 -0.32,-106.00 152.73 80
